Regional Weather Roundup
Issued by NWS Little Rock, AR

Home | Current Version | Previous Version | Graphics & Text | Print | Product List | Glossary On
Versions: 1 2 3 4 5 6 7 8 9 10 11 12 13 14 15 16 17 18 19 20 21 22 23 24 25 26 27 28 29 30 31 32 33 34 35 36 37 38 39 40 41 42 43 44 45 46 47 48 49 50
000
ASUS44 KLZK 282305
RWRLZK

WEATHER ROUNDUP FOR ARKANSAS
NATIONAL WEATHER SERVICE LITTLE ROCK AR
600 PM CDT WED JUN 28 2017

NOTE: "FAIR" INDICATES FEW OR NO CLOUDS BELOW 12,000 FEET WITH NO
SIGNIFICANT WEATHER AND/OR OBSTRUCTIONS TO VISIBILITY.

ARZ001-003-010-029-290000-
NORTHWEST ARKANSAS

CITY           SKY/WX    TMP DP  RH WIND       PRES   REMARKS
FAYETTEVILLE   MOSUNNY   84  67  56 SE9G18    29.90F HX  86
FORT SMITH     SUNNY     90  66  45 S12       29.86F HX  92
HARRISON       PTSUNNY   84  65  52 S14G23    29.94F HX  86
BENTONVILLE    SUNNY     84  64  51 S9G16     29.91F HX  86
ROGERS         SUNNY     86  66  51 S15G22    29.91F HX  88
SILOAM SPGS    SUNNY     86  64  48 S14G21    29.88F HX  87
HIGHFILL       SUNNY     87  65  47 S18G26    29.90F HX  89
SPRINGDALE     MOSUNNY   84  64  51 SE13G21   29.92F HX  86
$$

ARZ004-005-016-290000-
NORTH CENTRAL ARKANSAS

CITY           SKY/WX    TMP DP  RH WIND       PRES   REMARKS
BATESVILLE     SUNNY     84  64  51 S7        29.94F HX  86
FLIPPIN        SUNNY    N/A N/A N/A S10       29.90F
MTN HOME       SUNNY     84  64  50 SW9       29.92F HX  85
$$

ARZ040-041-290000-
WEST CENTRAL ARKANSAS

CITY           SKY/WX    TMP DP  RH WIND       PRES   REMARKS
MENA           SUNNY     86  68  54 SE6       29.92F HX  89
MOUNT IDA      SUNNY     86  62  44 VRB6      29.90F HX  86
$$

ARZ009-017-025-026-028-290000-
NORTHEAST ARKANSAS

CITY           SKY/WX    TMP DP  RH WIND       PRES   REMARKS
JONESBORO      SUNNY     87  67  51 S13       29.94F HX  90
WALNUT RIDGE   SUNNY     86  63  45 S17       29.93F HX  87
BLYTHEVILLE    SUNNY     86  64  47 S9        29.96F HX  87
$$

ARZ022-023-033-042-044-290000-
CENTRAL ARKANSAS

CITY           SKY/WX    TMP DP  RH WIND       PRES   REMARKS
LITTLE ROCK    MOSUNNY   86  70  58 SE12      29.93F HX  90
JACKSONVILLE   SUNNY     87  70  56 SE8       29.92F HX  92
CONWAY           N/A     90  68  48 S15       29.90F HX  93
SEARCY         MOSUNNY   87  70  56 MISG      29.95F HX  92
HOT SPRINGS    MOSUNNY   88  68  51 S8        29.92F HX  91
RUSSELLVILLE     N/A     86  65  49 SE6       29.90F HX  88
CLINTON        FAIR      84  68  58 SE5       29.93F HX  87
$$

ARZ036-290000-
EAST ARKANSAS

CITY           SKY/WX    TMP DP  RH WIND       PRES   REMARKS
WEST MEMPHIS   SUNNY     86  66  51 S10       29.95F HX  88
$$

ARZ050-053-066-070-073-290000-
SOUTHWEST ARKANSAS

CITY           SKY/WX    TMP DP  RH WIND       PRES   REMARKS
ARKADELPHIA    FAIR      88  70  55 S7        29.91  HX  93
CAMDEN         SUNNY     88  64  45 SE9       29.91F HX  89
TEXARKANA      PTSUNNY   86  66  51 SE10      29.90F HX  88
EL DORADO      SUNNY     87  65  47 SE8       29.92F HX  89
DE QUEEN       SUNNY     89  69  51 SE8       29.87F HX  93
$$

ARZ056-057-069-290000-
SOUTHEAST ARKANSAS

CITY           SKY/WX    TMP DP  RH WIND       PRES   REMARKS
PINE BLUFF     MOSUNNY   86  69  56 SE13      29.94F HX  90
STUTTGART      MOSUNNY   88  59  37 SE14      29.95F HX  87
MONTICELLO     MOSUNNY   87  66  49 SE7       29.94F HX  89

$$





USA.gov is the U.S. government's official web portal to all federal, state and local government web resources and services.